Location: Unspecified
(0.0000°N, 0.0000°E)
Time: 02:13:55
(UTC+00:00)

Courier 1B - Visible Passes

Search period start: 03 September 2014 00:00
Search period end: 13 September 2014 00:00
Orbit: 963 x 1209 km, 28.3° (Epoch: 01 September)

Date Brightness Start Highest point End Pass type
(mag) Time Alt. Az. Time Alt. Az. Time Alt. Az.
03 Sep 10.2 02:23:20 15° ENE 02:23:20 15° ENE 02:24:23 10° ENE visible
03 Sep 8.6 04:10:15 35° NW 04:11:05 36° NNW 04:18:05 10° NE visible
04 Sep 9.1 03:20:03 33° NNE 03:20:03 33° NNE 03:24:32 10° NE visible
04 Sep 9.7 05:07:35 10° WNW 05:12:06 16° NNW 05:16:37 10° NNE visible
05 Sep 10.2 02:29:48 14° NE 02:29:48 14° NE 02:30:49 10° NE visible
05 Sep 9.3 04:16:42 21° NW 04:17:53 21° NNW 04:23:33 10° NNE visible
06 Sep 9.4 03:26:26 23° N 03:26:26 23° N 03:30:15 10° NNE visible
07 Sep 10.3 02:36:08 12° NE 02:36:08 12° NE 02:36:45 10° NE visible
07 Sep 9.8 04:23:02 12° NW 04:25:00 13° NNW 04:28:16 10° N visible
08 Sep 9.8 03:32:42 15° N 03:32:42 15° N 03:35:26 10° NNE visible
11 Sep 9.8 20:02:47 10° S 20:02:50 10° S 20:02:50 10° S visible
